This demonstration page uses our WeatherBlox Daily Observations layout. Learn more.

Left ArrowRight Arrow

38.20091, -84.87328

Hourly Observations for July 15, 2022

Temp ( °F °C ) Dew Point ( °F °C ) Humidity (%) Winds ( mph kmh ) Pressure ( in mb ) Visibility ( mi km ) Precip ( " mm )
12:53 am 00:53 Clear 67 19.4 63 17.2 87 87 Calm 30.13 1020 10 16 0.00 0.00
1:53 am 01:53 Clear 66 18.9 63 17.2 90 90 Calm 30.13 1020 10 16 0.00 0.00
2:53 am 02:53 Clear 65 18.3 62 16.7 90 90 Calm 30.13 1020 10 16 0.00 0.00
3:53 am 03:53 Mostly Clear 64 17.8 62 16.7 93 93 Calm 30.12 1020 10 16 0.00 0.00
4:53 am 04:53 Clear 63 17.2 61 16.1 93 93 Calm 30.11 1020 10 16 0.00 0.00
5:53 am 05:53 Clear 62 16.7 60 15.6 93 93 N 3 6 30.12 1020 10 16 0.00 0.00
6:53 am 06:53 Sunny 62 16.7 60 15.6 93 93 Calm 30.13 1020 10 16 0.00 0.00
7:53 am 07:53 Sunny 67 19.4 62 16.7 84 84 Calm 30.13 1020 10 16 0.00 0.00
8:53 am 08:53 Sunny 74 23.3 65 18.3 74 74 Calm 30.13 1020 10 16 0.00 0.00
9:53 am 09:53 Sunny 79 26.1 63 17.2 58 58 Calm 30.13 1020 10 16 0.00 0.00
10:53 am 10:53 Sunny 82 27.8 61 16.1 49 49 Calm 30.14 1021 10 16 0.00 0.00
11:53 am 11:53 Sunny 84 28.9 60 15.6 44 44 VRB 3 6 30.15 1021 10 16 0.00 0.00
12:53 pm 12:53 Sunny 86 30 58 14.4 39 39 NNW 9 15 30.15 1021 10 16 0.00 0.00
1:53 pm 13:53 Sunny 86 30 58 14.4 39 39 WNW 6 9 30.14 1021 10 16 0.00 0.00
2:53 pm 14:53 Sunny 86 30 59 15 40 40 NW 6 9 30.13 1020 10 16 0.00 0.00
3:53 pm 15:53 Sunny 87 30.6 58 14.4 37 37 VRB 6 9 30.11 1020 10 16 0.00 0.00
4:53 pm 16:53 Sunny 87 30.6 61 16.1 42 42 VRB 3 6 30.09 1019 10 16 0.00 0.00
5:53 pm 17:53 Mostly Sunny 84 28.9 62 16.7 48 48 WNW 5 7 30.09 1019 10 16 0.00 0.00
6:53 pm 18:53 Sunny 82 27.8 63 17.2 53 53 Calm 30.07 1018 10 16 0.00 0.00
7:53 pm 19:53 Sunny 81 27.2 66 18.9 61 61 NNW 5 7 30.06 1018 10 16 0.00 0.00
8:53 pm 20:53 Sunny 78 25.6 65 18.3 64 64 NNW 3 6 30.05 1018 10 16 0.00 0.00
9:53 pm 21:53 Clear 75 23.9 66 18.9 74 74 Calm 30.05 1018 10 16 0.00 0.00
10:53 pm 22:53 Clear 75 23.9 66 18.9 74 74 Calm 30.07 1018 10 16 0.00 0.00
11:53 pm 23:53 Mostly Cloudy 75 23.9 67 19.4 76 76 Calm 30.07 1018 10 16 0.00 0.00

Powered by AerisWeather